User: anonymous   Login
Location: Newark
(19.5361°N, 155.5761°W)
Time: 04:16:06
(UTC+00:00)
Language:

FO-29 - Orbit

View from above orbital plane
View from above orbital plane
View from above satellite
View from above satellite

Ground track
Ground track

The orbit data is extracted from the following two-line orbital elements,

1 24278U 96046B   20092.11802977 -.00000029 +00000-0 +77833-5 0  9991
2 24278 098.5722 212.1189 0349825 214.9856 142.7844 13.53096943166420
Epoch (UTC): 01 April 2020 02:49:57
Eccentricity: 0.0349825
inclination: 98.5722°
perigee height: 800 km
apogee height: 1321 km
right ascension of ascending node: 212.1189°
argument of perigee: 214.9856°
revolutions per day: 13.53096943
mean anomaly at epoch: 142.7844°
orbit number at epoch: 16642

The dashed part of the orbit path shows where the satellite is in the earth's shadow,  

DLR